[[{"header":{"parameterUnit":"m.s-1","parameterCategory":2,"la1":30.2991,"la2":30.254,"lo1":-89.0895,"lo2":-89.0444,"dy":0.0017,"dx":0.0017,"nx":28,"ny":28,"refTime":"2024-08-15T21:00:00:Z","depth":"0","parameterNumber":2,"parameterNumberName":"U-component_of_CURRENTS"},"data":[0,0,0,0,0,0,0,0,0,0,0,0,0,0,0,0,0,0,0,0,0,0,0,0,0,0,0,0,0,0,0,0,0,0,0,0,0,0,0,0,0,0,0,0,0,0,0,0,0,0,0,0,0,0,0,0,0,0,0.2602,0.2601,0,0.2556,0.2556,0.2556,0.2486,0.2484,0.2482,0.2481,0.2484,0.2486,0.2487,0,0,0,0,0,0,0,0,0,0,0,0,0,0.276,0.2757,0.2602,0.2601,0.26,0.2556,0.2556,0.2556,0.2486,0.2484,0.2482,0.248,0.2484,0.2486,0.2488,0,0,0,0,0,0,0,0,0,0,0,0,0,0.2704,0.2756,0.2602,0.2557,0.2552,0.2556,0.2556,0.2556,0.2486,0.2484,0.2481,0.2479,0.2483,0.2486,0.2488,0.2551,0,0,0.2495,0.2496,0,0,0,0,0,0,0,0,0.2707,0.2698,0.2565,0.256,0.2555,0.2521,0.2613,0.2555,0.2487,0.2515,0.2481,0.2478,0.2501,0.2501,0.2503,0.2551,0.2551,0.2495,0.2497,0.2498,0.2499,0,0,0,0,0,0,0,0.2711,0.2701,0.2588,0.2564,0.2558,0.2584,0.2573,0.2602,0.2526,0.2513,0.2506,0.2496,0.2498,0.2501,0.2502,0.2551,0.2495,0.2497,0.2499,0.25,0.2668,0.267,0,0,0,0,0,0,0.2704,0.2703,0.2589,0.2586,0.2622,0.2582,0.257,0.2537,0.2524,0.2518,0.2498,0.2493,0.2498,0.25,0.2502,0.2596,0.2498,0.25,0.2501,0.2665,0.2668,0.2671,0,0,0,0,0,0,0.2707,0.2693,0.2591,0.2643,0.2631,0.2581,0.2546,0.2537,0.2536,0.2512,0.2507,0.2504,0.2496,0.2499,0.2531,0.2595,0.2501,0.2503,0.2661,0.2666,0.267,0.2772,0,0,0,0,0,0,0.2712,0.2694,0.2694,0.2641,0.2627,0.2605,0.2547,0.2538,0.2532,0.2524,0.2516,0.2513,0.2494,0.2528,0.2534,0.2596,0.2505,0.2657,0.2663,0.2668,0.2764,0.2779,0.2791,0,0,0,0,0,0.2717,0.2711,0.2694,0.2681,0.2618,0.2606,0.2604,0.2564,0.2534,0.2551,0.2538,0.2514,0.2568,0.2532,0.2538,0.2603,0.2654,0.2661,0.2668,0.2758,0.2776,0.2791,0,0,0,0,0,0,0.2776,0.2701,0.2681,0.2651,0.264,0.2593,0.2603,0.2578,0.2581,0.2573,0.2546,0.2545,0.2606,0.2593,0.2553,0.267,0.2612,0.262,0.2679,0.2695,0.2709,0.2719,0.2507,0,0,0,0,0,0.2791,0.276,0.2715,0.2695,0.2692,0.2656,0.2652,0.2624,0.2608,0.2605,0.2598,0.2606,0.2644,0.2654,0.2681,0.274,0.2747,0.2789,0.2802,0.2814,0.2828,0.2928,0.2952,0.2694,0.2694,0.2694,0,0,0.2801,0.2762,0.2742,0.2707,0.2692,0.2696,0.2648,0.2643,0.2656,0.2611,0.2641,0.2659,0.2673,0.2738,0.2764,0.2728,0.2884,0.2823,0.2832,0.284,0.2938,0.2963,0.2985,0.2698,0.2698,0.2697,0,0,0.281,0.2783,0.2767,0.2765,0.2746,0.2736,0.2739,0.2711,0.2715,0.2743,0.2733,0.2793,0.281,0.2858,0.2878,0.2991,0.296,0.299,0.306,0.3157,0.3179,0.3198,0.3203,0.3223,0.2988,0.2988,0.2988,0,0.2832,0.2796,0.2771,0.277,0.2774,0.2756,0.2765,0.278,0.2769,0.2801,0.2761,0.2861,0.2881,0.2991,0.3025,0.3027,0.3031,0.2992,0.3175,0.3195,0.3213,0.3214,0.3234,0.2994,0.2993,0.2993,0.2992,0,0.282,0.2817,0.2817,0.2803,0.2821,0.2827,0.2838,0.2875,0.2876,0.2887,0.2986,0.3018,0.3075,0.3108,0.3094,0.3246,0.3187,0.3187,0.313,0.3245,0.3238,0.3257,0.3002,0.3,0.2998,0.2997,0,0,0.2792,0.2804,0.2805,0.2826,0.2839,0.2851,0.2912,0.2968,0.3028,0.3048,0.3129,0.3222,0.3237,0.3264,0.3283,0.3367,0.3498,0.3325,0.3327,0.3323,0.3642,0.3431,0.343,0.3521,0.3526,0.353,0.357,0,0.2793,0.2806,0.2815,0.2859,0.2876,0.2915,0.2983,0.3042,0.3092,0.3176,0.3243,0.3329,0.3295,0.3343,0.3424,0.3497,0.3558,0.3482,0.3537,0.3538,0.3333,0.3451,0.3219,0.3221,0.3588,0.3591,0.3593,0,0.2768,0.2789,0.2822,0.2907,0.2923,0.2961,0.3084,0.3143,0.3268,0.3313,0.3399,0.3433,0.3567,0.3522,0.3676,0.3619,0.3638,0.3673,0.3675,0.346,0.3365,0.3176,0.3241,0.3155,0.3622,0.362,0.3618,0,0.2748,0.2798,0.2833,0.2851,0.2941,0.2996,0.3063,0.3186,0.3272,0.3411,0.348,0.3597,0.3661,0.3745,0.3772,0.3748,0.3905,0.3886,0.3703,0.3684,0.3489,0.3444,0.3474,0.4003,0.4003,0.4003,0.4003,0,0.2736,0.2768,0.2832,0.2852,0.2948,0.3005,0.3136,0.3223,0.3363,0.3466,0.3548,0.3633,0.3726,0.3795,0.3823,0.3793,0.3944,0.3732,0.3707,0.3508,0.3467,0.338,0.3381,0.4004,0.4004,0.4004,0.4004,0,0.2711,0.274,0.2794,0.2892,0.2935,0.3005,0.3171,0.3271,0.3395,0.353,0.3579,0.3693,0.3744,0.3785,0.3898,0.3826,0.3729,0.3806,0.3506,0.3442,0.3135,0.3149,0.3045,0.2977,0.3613,0.3608,0.3604,0,0.2693,0.2714,0.2815,0.2869,0.2918,0.3036,0.3132,0.3276,0.3368,0.3551,0.3603,0.3681,0.3664,0.3695,0.3617,0.3573,0.3551,0.3334,0.3261,0.3096,0.3099,0.3022,0.2972,0.3037,0.3029,0.3022,0.3017,0,0.2693,0.2726,0.2789,0.2888,0.2978,0.3084,0.3209,0.3265,0.3417,0.3485,0.3533,0.3529,0.3479,0.3286,0.3201,0.3168,0.3136,0.3187,0.3152,0.2757,0.2551,0.2477,0.2982,0.2957,0.2963,0.2967,0.297,0.2973,0.2706,0.2758,0.2844,0.292,0.3016,0.3087,0.3112,0.3195,0.3258,0.3264,0.3373,0.3234,0.3067,0.2868,0.2821,0.2553,0.2675,0.2442,0.2503,0.2461,0.2306,0.2613,0.2472,0.2474,0.2477,0.2479,0.2482,0,0.2732,0.2795,0.2877,0.2955,0.2991,0.3062,0.313,0.3079,0.3017,0.301,0.2971,0.27,0.2461,0.2318,0.2046,0.1912,0.1874,0.1872,0.1775,0.179,0.2172,0.2054,0.1651,0.1651,0.1651,0.1651,0.1651,0.1651,0.2767,0.284,0.2862,0.2893,0.2924,0.2909,0.2888,0.2782,0.2709,0.2453,0.2235,0.2178,0.2035,0.1815,0.1568,0.1516,0.1474,0.1314,0.1461,0.1777,0.1837,0.1894,0.1783,0.133,0.133,0.0935,0.0932,0.093]},{"header":{"parameterUnit":"m.s-1","parameterCategory":2,"la1":30.2991,"la2":30.254,"lo1":-89.0895,"lo2":-89.0444,"dy":0.0017,"dx":0.0017,"nx":28,"ny":28,"refTime":"2024-08-15T21:00:00:Z","depth":"0","parameterNumber":3,"parameterNumberName":"V-component_of_CURRENTS"},"data":[0,0,0,0,0,0,0,0,0,0,0,0,0,0,0,0,0,0,0,0,0,0,0,0,0,0,0,0,0,0,0,0,0,0,0,0,0,0,0,0,0,0,0,0,0,0,0,0,0,0,0,0,0,0,0,0,0,0,0.0182,0.0182,0,0.018,0.018,0.018,0.0171,0.017,0.017,0.017,0.0198,0.02,0.0201,0,0,0,0,0,0,0,0,0,0,0,0,0,0.0207,0.0207,0.0182,0.0182,0.0182,0.018,0.018,0.018,0.0171,0.017,0.017,0.0169,0.0198,0.0199,0.0201,0,0,0,0,0,0,0,0,0,0,0,0,0,0.0202,0.0207,0.0182,0.0175,0.0174,0.018,0.018,0.018,0.0171,0.017,0.017,0.0169,0.0198,0.0199,0.0201,0.0224,0,0,0.0206,0.0207,0,0,0,0,0,0,0,0,0.0202,0.0201,0.0176,0.0176,0.0175,0.0173,0.0199,0.0196,0.0171,0.0175,0.017,0.0169,0.0192,0.0194,0.0198,0.0225,0.0227,0.0206,0.0208,0.0208,0.0209,0,0,0,0,0,0,0,0.0202,0.0201,0.0183,0.0176,0.0175,0.0182,0.0181,0.0199,0.0189,0.0174,0.0173,0.017,0.0192,0.0196,0.0198,0.0227,0.0206,0.0208,0.0209,0.021,0.03,0.0301,0,0,0,0,0,0,0.0198,0.0202,0.0183,0.0183,0.0185,0.0182,0.018,0.0176,0.0188,0.0188,0.017,0.0169,0.0193,0.0196,0.0199,0.0263,0.0208,0.021,0.0211,0.0298,0.03,0.0301,0,0,0,0,0,0,0.0198,0.0196,0.0183,0.0191,0.0189,0.0182,0.0177,0.0176,0.0181,0.0184,0.0185,0.0175,0.0193,0.0197,0.0228,0.0263,0.0211,0.0212,0.0297,0.0299,0.0301,0.0368,0,0,0,0,0,0,0.0199,0.0196,0.0195,0.019,0.0189,0.0196,0.0178,0.0177,0.0178,0.0177,0.0189,0.0191,0.0193,0.0225,0.023,0.0264,0.0214,0.0295,0.0298,0.03,0.0364,0.0372,0.0379,0,0,0,0,0,0.02,0.0204,0.0195,0.0193,0.0186,0.0196,0.0197,0.0191,0.0179,0.0191,0.02,0.0191,0.0244,0.0228,0.0233,0.0269,0.0294,0.0297,0.03,0.0361,0.037,0.0379,0,0,0,0,0,0,0.0214,0.0203,0.0193,0.0193,0.0196,0.0194,0.0201,0.0195,0.021,0.021,0.021,0.0214,0.0253,0.025,0.0232,0.0301,0.0267,0.0271,0.0312,0.0321,0.0328,0.0352,0.0215,0,0,0,0,0,0.0215,0.0217,0.0208,0.0211,0.0212,0.0207,0.0209,0.0206,0.0215,0.022,0.0229,0.0243,0.027,0.0285,0.0302,0.0342,0.0348,0.0367,0.0375,0.0381,0.0404,0.0461,0.0476,0.0311,0.0311,0.0311,0,0,0.0219,0.0216,0.0214,0.0214,0.0215,0.0235,0.0208,0.0218,0.0243,0.0223,0.0263,0.0268,0.0284,0.033,0.0348,0.0333,0.0422,0.0385,0.039,0.041,0.0466,0.0482,0.0497,0.0314,0.0313,0.0313,0,0,0.0242,0.0227,0.0241,0.0248,0.0252,0.0255,0.0259,0.0263,0.0272,0.0305,0.0303,0.0338,0.0361,0.0396,0.0413,0.0473,0.0457,0.0465,0.0531,0.0586,0.06,0.0613,0.0605,0.0617,0.0473,0.0473,0.0474,0,0.0247,0.0263,0.0249,0.027,0.0284,0.0268,0.0298,0.031,0.0326,0.0351,0.0325,0.0398,0.0403,0.0487,0.0503,0.0495,0.0496,0.0495,0.0597,0.0611,0.0623,0.0611,0.0624,0.0477,0.0477,0.0476,0.0476,0,0.0283,0.0299,0.0311,0.0334,0.035,0.0372,0.0383,0.0405,0.0407,0.0425,0.049,0.0506,0.0555,0.0557,0.0548,0.0642,0.0602,0.0597,0.0577,0.0644,0.0626,0.0638,0.0482,0.0481,0.048,0.0479,0,0,0.0288,0.0329,0.0333,0.0362,0.0386,0.0406,0.0453,0.05,0.0548,0.0561,0.064,0.0676,0.0681,0.0702,0.0702,0.0747,0.0813,0.0709,0.071,0.0703,0.0891,0.0819,0.0824,0.0825,0.0829,0.0831,0.083,0,0.0323,0.0381,0.0393,0.0457,0.0489,0.0501,0.0554,0.0594,0.0624,0.0695,0.0725,0.0793,0.0738,0.0774,0.0811,0.0832,0.0852,0.0811,0.0825,0.0824,0.0758,0.084,0.08,0.0794,0.0841,0.0843,0.0844,0,0.0355,0.0394,0.0461,0.0533,0.0549,0.0586,0.0671,0.0716,0.0801,0.083,0.0894,0.0915,0.0998,0.0937,0.0996,0.097,0.0934,0.0926,0.0926,0.0853,0.0778,0.0743,0.0813,0.0745,0.0862,0.086,0.0859,0,0.0374,0.0442,0.0503,0.0524,0.0599,0.0639,0.0681,0.0759,0.0831,0.0928,0.1005,0.1064,0.1135,0.1122,0.1086,0.1055,0.1131,0.1087,0.0976,0.0967,0.0935,0.0919,0.0953,0.1118,0.1118,0.1118,0.1118,0,0.041,0.0458,0.0516,0.055,0.0639,0.0671,0.0777,0.0825,0.0937,0.1067,0.1083,0.1207,0.1193,0.1226,0.1149,0.1104,0.1177,0.101,0.0988,0.095,0.0936,0.0875,0.085,0.1118,0.1118,0.1118,0.1118,0,0.043,0.0465,0.054,0.0621,0.0651,0.0713,0.0837,0.0925,0.1012,0.1189,0.1239,0.1347,0.1385,0.132,0.1312,0.1203,0.1105,0.1098,0.1018,0.0987,0.0801,0.0781,0.0792,0.0781,0.0988,0.0987,0.0986,0,0.0451,0.0491,0.0586,0.0643,0.0684,0.0778,0.0861,0.0955,0.1069,0.1291,0.1401,0.1485,0.1566,0.1487,0.1305,0.1142,0.1079,0.0984,0.0925,0.0812,0.0775,0.0749,0.0738,0.0888,0.0886,0.0884,0.0883,0,0.0503,0.053,0.0597,0.0703,0.0791,0.0901,0.1027,0.1127,0.1284,0.1442,0.1657,0.1737,0.165,0.1493,0.1235,0.1116,0.0939,0.0945,0.0889,0.0761,0.0682,0.0652,0.0818,0.087,0.0871,0.0872,0.0873,0.0873,0.0545,0.0601,0.0683,0.0783,0.0889,0.1027,0.1129,0.1284,0.1477,0.1731,0.181,0.1911,0.1653,0.1305,0.1145,0.0791,0.0837,0.068,0.0678,0.067,0.0639,0.0739,0.0729,0.0729,0.073,0.073,0.073,0,0.0605,0.0669,0.0765,0.0892,0.1007,0.1053,0.1252,0.1374,0.1601,0.1796,0.197,0.1824,0.1527,0.12,0.0729,0.055,0.0512,0.0475,0.0454,0.0468,0.0608,0.0581,0.0466,0.0466,0.0467,0.0467,0.0467,0.0467,0.0648,0.0741,0.0783,0.0966,0.1061,0.123,0.1344,0.1536,0.1685,0.1867,0.1868,0.1865,0.1555,0.0864,0.0438,0.0373,0.032,0.0266,0.0281,0.0375,0.0394,0.0413,0.0382,0.0228,0.0228,0.0135,0.0134,0.0133]}],[{"header":{"parameterUnit":"m.s-1","parameterCategory":2,"la1":30.2991,"la2":30.254,"lo1":-89.0895,"lo2":-89.0444,"dy":0.0017,"dx":0.0017,"nx":28,"ny":28,"refTime":"2024-08-15T21:00:00:Z","depth":"2","parameterNumber":2,"parameterNumberName":"U-component_of_CURRENTS"},"data":[0,0,0,0,0,0,0,0,0,0,0,0,0,0,0,0,0,0,0,0,0,0,0,0,0,0,0,0,0,0,0,0,0,0,0,0,0,0,0,0,0,0,0,0,0,0,0,0,0,0,0,0,0,0,0,0,0,0,0.202,0.202,0,0.2006,0.2006,0.2006,0.1982,0.1982,0.1981,0.198,0.2016,0.2017,0.2019,0,0,0,0,0,0,0,0,0,0,0,0,0,0.2041,0.204,0.202,0.202,0.2019,0.2006,0.2006,0.2006,0.1983,0.1982,0.1981,0.198,0.2015,0.2017,0.2019,0,0,0,0,0,0,0,0,0,0,0,0,0,0.2032,0.204,0.202,0.2004,0.2002,0.2006,0.2006,0.2006,0.1983,0.1982,0.1981,0.198,0.2014,0.2017,0.2019,0.2056,0,0,0.2027,0.2028,0,0,0,0,0,0,0,0,0.2033,0.2032,0.2007,0.2005,0.2003,0.1992,0.2026,0.2024,0.1983,0.1993,0.198,0.1979,0.2011,0.2014,0.2017,0.2057,0.2059,0.2027,0.2028,0.2029,0.203,0,0,0,0,0,0,0,0.2034,0.2033,0.2018,0.2006,0.2004,0.2001,0.1999,0.2025,0.2012,0.1992,0.199,0.1984,0.2011,0.2015,0.2018,0.2059,0.2027,0.2029,0.203,0.2031,0.2154,0.2156,0,0,0,0,0,0,0.2029,0.2033,0.2018,0.2017,0.2012,0.2001,0.1999,0.1999,0.201,0.201,0.1984,0.1982,0.2011,0.2015,0.2019,0.2079,0.2029,0.2031,0.2033,0.2152,0.2154,0.2156,0,0,0,0,0,0,0.203,0.2029,0.2019,0.2022,0.202,0.2002,0.2002,0.1999,0.2007,0.2003,0.2004,0.1995,0.2011,0.2016,0.2045,0.208,0.2033,0.2035,0.215,0.2153,0.2155,0.219,0,0,0,0,0,0,0.2031,0.2029,0.2032,0.2022,0.2019,0.2032,0.2003,0.2,0.2003,0.2001,0.2013,0.2014,0.201,0.2042,0.2048,0.2082,0.2037,0.2148,0.2151,0.2154,0.2186,0.2193,0.2199,0,0,0,0,0,0.2032,0.2031,0.2033,0.203,0.2023,0.2032,0.2032,0.2017,0.2005,0.2019,0.202,0.2014,0.2068,0.2045,0.2052,0.2088,0.2146,0.215,0.2154,0.2183,0.2192,0.2199,0,0,0,0,0,0,0.2045,0.2028,0.2029,0.2026,0.2037,0.2027,0.2037,0.2027,0.204,0.2041,0.2033,0.2036,0.2081,0.2082,0.2057,0.2135,0.2109,0.2115,0.2129,0.2137,0.2144,0.2207,0.2039,0,0,0,0,0,0.205,0.2048,0.2043,0.2049,0.2056,0.2053,0.2055,0.205,0.2054,0.2057,0.2064,0.2079,0.2105,0.2116,0.2141,0.218,0.2201,0.221,0.2217,0.2222,0.228,0.2334,0.2351,0.2169,0.2169,0.2169,0,0,0.2052,0.205,0.2045,0.2052,0.2062,0.2071,0.2054,0.2068,0.2078,0.2063,0.209,0.2108,0.2123,0.2165,0.2185,0.2166,0.2274,0.2227,0.2231,0.2288,0.234,0.2358,0.2374,0.2172,0.2172,0.2171,0,0,0.2056,0.2067,0.2062,0.2078,0.2092,0.2096,0.2103,0.2109,0.2119,0.2147,0.2143,0.2206,0.221,0.2256,0.227,0.234,0.2312,0.2313,0.2392,0.2442,0.2458,0.2472,0.2471,0.2486,0.2309,0.2309,0.2309,0,0.2058,0.2062,0.2067,0.2078,0.2094,0.2109,0.2121,0.2137,0.2151,0.2171,0.2163,0.2235,0.2277,0.2336,0.2379,0.2364,0.2346,0.2351,0.2451,0.2466,0.248,0.2477,0.2492,0.2311,0.2311,0.2311,0.231,0,0.2063,0.207,0.2082,0.2098,0.2116,0.2143,0.2161,0.218,0.2198,0.2219,0.2288,0.2346,0.2393,0.2413,0.2432,0.254,0.2477,0.2453,0.2429,0.2501,0.2491,0.2507,0.2314,0.2313,0.2313,0.2312,0,0,0.2046,0.2075,0.2077,0.2086,0.2137,0.2142,0.218,0.2219,0.2249,0.2292,0.2352,0.2456,0.2495,0.2524,0.2543,0.2624,0.2731,0.2591,0.2592,0.2588,0.2782,0.2614,0.2613,0.2687,0.2691,0.2695,0.2716,0,0.2053,0.207,0.2087,0.2107,0.2124,0.2156,0.2196,0.2234,0.2283,0.2349,0.2434,0.2522,0.2521,0.2578,0.2648,0.2734,0.278,0.2726,0.272,0.2721,0.2561,0.2631,0.2399,0.2388,0.2731,0.2733,0.2735,0,0.2047,0.2063,0.2088,0.2117,0.2129,0.2154,0.2219,0.2259,0.236,0.2409,0.2491,0.255,0.2707,0.2703,0.2837,0.2777,0.2806,0.285,0.2849,0.2711,0.2584,0.2384,0.2403,0.276,0.2758,0.2757,0.2755,0,0.2028,0.2052,0.2075,0.2091,0.2136,0.216,0.2206,0.2292,0.234,0.2488,0.2549,0.2662,0.277,0.2827,0.2922,0.2883,0.3047,0.2985,0.2835,0.282,0.2644,0.2606,0.3083,0.3083,0.3082,0.3082,0.3082,0,0.2025,0.203,0.207,0.2081,0.2117,0.2169,0.2234,0.2291,0.241,0.25,0.2599,0.2677,0.2819,0.29,0.2943,0.2932,0.304,0.2889,0.2838,0.2639,0.2603,0.2954,0.2939,0.3083,0.3083,0.3083,0.3083,0,0.1994,0.202,0.204,0.2093,0.2107,0.215,0.2241,0.2279,0.2414,0.2539,0.2606,0.2736,0.2819,0.2883,0.3017,0.2953,0.2986,0.2945,0.2681,0.2599,0.2707,0.2693,0.2768,0.2763,0.2758,0.2755,0.2751,0,0.1983,0.1989,0.204,0.2063,0.2094,0.2156,0.2183,0.2284,0.2349,0.2554,0.2611,0.2735,0.2759,0.2819,0.2776,0.2742,0.2868,0.2515,0.2427,0.2744,0.2687,0.2681,0.2673,0.2189,0.2181,0.2175,0.217,0,0.1953,0.1977,0.1991,0.2048,0.2072,0.2102,0.2181,0.2193,0.234,0.2425,0.2536,0.2581,0.2607,0.2459,0.2419,0.2378,0.2497,0.2381,0.2831,0.2287,0.2194,0.2139,0.2152,0.2116,0.2121,0.2125,0.2128,0.213,0.1939,0.1937,0.1963,0.2011,0.2034,0.2043,0.2047,0.2103,0.214,0.2233,0.2344,0.2324,0.233,0.2092,0.201,0.1935,0.2093,0.2014,0.2036,0.2063,0.1975,0.1878,0.1722,0.1725,0.1728,0.173,0.1732,0,0.1878,0.1902,0.1928,0.1959,0.1946,0.2007,0.2025,0.1976,0.1961,0.2025,0.2064,0.1837,0.1694,0.1705,0.1478,0.143,0.1449,0.1385,0.1411,0.1464,0.1511,0.1399,0.0991,0.099,0.0988,0.0986,0,0,0.1849,0.1832,0.1826,0.1831,0.1874,0.1801,0.1784,0.1742,0.1739,0.1631,0.1604,0.1665,0.1679,0.135,0.1258,0.11,0.1293,0.1047,0.1638,0.1726,0.1773,0.186,0.1743,0,0,0,0,0]},{"header":{"parameterUnit":"m.s-1","parameterCategory":2,"la1":30.2991,"la2":30.254,"lo1":-89.0895,"lo2":-89.0444,"dy":0.0017,"dx":0.0017,"nx":28,"ny":28,"refTime":"2024-08-15T21:00:00:Z","depth":"2","parameterNumber":3,"parameterNumberName":"V-component_of_CURRENTS"},"data":[0,0,0,0,0,0,0,0,0,0,0,0,0,0,0,0,0,0,0,0,0,0,0,0,0,0,0,0,0,0,0,0,0,0,0,0,0,0,0,0,0,0,0,0,0,0,0,0,0,0,0,0,0,0,0,0,0,0,0.0026,0.0026,0,0.0029,0.0029,0.0029,0.0032,0.0032,0.0032,0.0032,0.0056,0.0057,0.0058,0,0,0,0,0,0,0,0,0,0,0,0,0,0.0035,0.0035,0.0026,0.0026,0.0026,0.0029,0.0029,0.0029,0.0032,0.0032,0.0032,0.0032,0.0056,0.0057,0.0058,0,0,0,0,0,0,0,0,0,0,0,0,0,0.0036,0.0035,0.0026,0.0027,0.0027,0.0029,0.0029,0.0029,0.0033,0.0032,0.0032,0.0032,0.0056,0.0057,0.0058,0.0069,0,0,0.0062,0.0062,0,0,0,0,0,0,0,0,0.0035,0.0035,0.0027,0.0027,0.0027,0.0028,0.0041,0.0043,0.0033,0.0032,0.0032,0.0032,0.0048,0.005,0.0053,0.007,0.0071,0.0062,0.0062,0.0063,0.0063,0,0,0,0,0,0,0,0.0035,0.0035,0.0029,0.0027,0.0026,0.003,0.003,0.0041,0.0043,0.0032,0.0032,0.0029,0.0048,0.0052,0.0054,0.0071,0.0062,0.0063,0.0063,0.0064,0.0114,0.0114,0,0,0,0,0,0,0.0031,0.0035,0.0029,0.0029,0.0029,0.003,0.003,0.003,0.0042,0.0043,0.0029,0.0029,0.005,0.0052,0.0055,0.0086,0.0063,0.0064,0.0065,0.0113,0.0114,0.0115,0,0,0,0,0,0,0.0031,0.0031,0.0029,0.0031,0.003,0.003,0.0029,0.003,0.0033,0.004,0.0041,0.0033,0.005,0.0053,0.0073,0.0086,0.0064,0.0065,0.0112,0.0113,0.0114,0.0136,0,0,0,0,0,0,0.0032,0.0031,0.0029,0.003,0.003,0.0035,0.0029,0.003,0.0031,0.0031,0.0043,0.0045,0.005,0.0071,0.0074,0.0087,0.0066,0.0111,0.0113,0.0114,0.0135,0.0138,0.014,0,0,0,0,0,0.0032,0.0034,0.0029,0.0028,0.0028,0.0035,0.0036,0.0036,0.0031,0.0038,0.0048,0.0045,0.008,0.0073,0.0076,0.0089,0.0111,0.0112,0.0114,0.0133,0.0137,0.014,0,0,0,0,0,0,0.0037,0.0035,0.0029,0.003,0.0032,0.0035,0.0039,0.0037,0.0049,0.0051,0.0055,0.0058,0.008,0.0082,0.0073,0.0107,0.0095,0.0097,0.0108,0.0112,0.0115,0.0145,0.0067,0,0,0,0,0,0.0037,0.004,0.0036,0.0038,0.0038,0.0037,0.0039,0.0041,0.005,0.0054,0.0063,0.0074,0.0088,0.0097,0.011,0.013,0.0133,0.014,0.0143,0.0145,0.0172,0.0192,0.0199,0.0119,0.0119,0.0119,0,0,0.0037,0.0038,0.0038,0.004,0.0041,0.0054,0.0039,0.0047,0.0063,0.0056,0.0082,0.0085,0.0096,0.012,0.0129,0.0123,0.0162,0.0147,0.0149,0.0175,0.0194,0.0202,0.0209,0.012,0.012,0.012,0,0,0.0051,0.0043,0.0052,0.0059,0.0062,0.0066,0.0068,0.0073,0.0079,0.0101,0.0101,0.0119,0.0134,0.0152,0.0161,0.0189,0.0176,0.018,0.0223,0.0241,0.0248,0.0254,0.0235,0.0239,0.0183,0.0183,0.0183,0,0.0053,0.0068,0.0057,0.0073,0.0084,0.0073,0.0094,0.0099,0.0113,0.0128,0.0114,0.0156,0.0158,0.0199,0.0208,0.0198,0.0192,0.0206,0.0245,0.0252,0.0258,0.0237,0.0242,0.0184,0.0184,0.0184,0.0183,0,0.0079,0.0092,0.01,0.0118,0.0127,0.0145,0.0149,0.0158,0.016,0.0173,0.0208,0.0213,0.0244,0.0236,0.0234,0.0278,0.025,0.0244,0.0237,0.0268,0.0243,0.0247,0.0186,0.0185,0.0185,0.0184,0,0,0.0083,0.0113,0.0117,0.014,0.0156,0.0171,0.0192,0.0218,0.0248,0.0253,0.0306,0.0314,0.0319,0.0331,0.0322,0.0337,0.0356,0.0313,0.0313,0.0295,0.0369,0.0321,0.0321,0.0353,0.0355,0.0356,0.0321,0,0.0111,0.0155,0.0162,0.021,0.0234,0.0236,0.0263,0.0284,0.03,0.0348,0.0355,0.0405,0.0353,0.038,0.0382,0.0381,0.0376,0.0365,0.0343,0.0342,0.0298,0.0329,0.0328,0.0296,0.0326,0.0326,0.0327,0,0.0136,0.0167,0.0218,0.0268,0.0278,0.0305,0.0352,0.038,0.0427,0.0444,0.0478,0.0495,0.053,0.0488,0.0475,0.0468,0.0426,0.0405,0.0403,0.0365,0.0306,0.0277,0.0303,0.0335,0.0334,0.0333,0.0333,0,0.0154,0.0206,0.0254,0.0272,0.0322,0.0346,0.0375,0.0413,0.0466,0.0528,0.0586,0.0595,0.0645,0.0593,0.0539,0.0516,0.052,0.0479,0.0385,0.0378,0.0381,0.0373,0.0473,0.0473,0.0473,0.0473,0.0473,0,0.0185,0.0223,0.027,0.0299,0.0366,0.0384,0.0461,0.0483,0.0562,0.0667,0.0652,0.0736,0.0682,0.0677,0.0584,0.0501,0.0545,0.0409,0.0383,0.0383,0.0376,0.0421,0.0415,0.0471,0.0472,0.0472,0.0472,0,0.0201,0.023,0.0293,0.0354,0.0379,0.043,0.0529,0.0592,0.0646,0.0789,0.0831,0.0871,0.0842,0.0747,0.0683,0.0579,0.0493,0.0446,0.0429,0.0402,0.0317,0.0313,0.0335,0.0333,0.0332,0.0331,0.033,0,0.0216,0.0249,0.0333,0.0383,0.0417,0.0496,0.0561,0.0631,0.0725,0.088,0.0971,0.099,0.1005,0.0847,0.0667,0.0476,0.047,0.0369,0.0328,0.0339,0.0311,0.0309,0.0307,0.0321,0.032,0.0319,0.0319,0,0.0252,0.0279,0.0333,0.0434,0.0513,0.0613,0.0722,0.0808,0.0933,0.1039,0.1179,0.12,0.1051,0.0865,0.0604,0.0479,0.0392,0.0344,0.0401,0.0352,0.0323,0.0295,0.0295,0.0312,0.0313,0.0313,0.0314,0.0314,0.028,0.0326,0.0402,0.05,0.0595,0.0731,0.0824,0.0956,0.1109,0.1272,0.1284,0.1281,0.1101,0.0722,0.0527,0.0314,0.0319,0.0249,0.0253,0.0258,0.0259,0.0229,0.0198,0.0198,0.0198,0.0198,0.0198,0,0.0325,0.0382,0.0467,0.0598,0.0712,0.0761,0.0939,0.1037,0.1217,0.1308,0.1373,0.1158,0.0945,0.0723,0.0395,0.0213,0.021,0.0161,0.0202,0.021,0.0216,0.0216,0.0143,0.0143,0.0142,0.0142,0,0,0.0356,0.0438,0.0484,0.0678,0.0777,0.0937,0.104,0.1186,0.127,0.1326,0.1302,0.1233,0.0986,0.0737,0.0494,0.032,0.0309,0.0284,0.0345,0.043,0.0439,0.028,0.0289,0,0,0,0,0]}],[{"header":{"parameterUnit":"m.s-1","parameterCategory":2,"la1":30.2991,"la2":30.254,"lo1":-89.0895,"lo2":-89.0444,"dy":0.0017,"dx":0.0017,"nx":28,"ny":28,"refTime":"2024-08-15T21:00:00:Z","depth":"4","parameterNumber":2,"parameterNumberName":"U-component_of_CURRENTS"},"data":[0,0,0,0,0,0,0,0,0,0,0,0,0,0,0,0,0,0,0,0,0,0,0,0,0,0,0,0,0,0,0,0,0,0,0,0,0,0,0,0,0,0,0,0,0,0,0,0,0,0,0,0,0,0,0,0,0,0,0.1122,0.1122,0,0.1151,0.115,0.115,0.1185,0.1186,0.1187,0.1188,0.1222,0.1222,0.1222,0,0,0,0,0,0,0,0,0,0,0,0,0,0.1061,0.1062,0.1121,0.1122,0.1123,0.1151,0.115,0.115,0.1185,0.1186,0.1187,0.1189,0.1222,0.1222,0.1222,0,0,0,0,0,0,0,0,0,0,0,0,0,0.1083,0.1062,0.1121,0.1148,0.1151,0.1151,0.115,0.115,0.1185,0.1186,0.1188,0.1189,0.1222,0.1222,0.1222,0.1188,0,0,0.1221,0.1221,0,0,0,0,0,0,0,0,0.1082,0.1084,0.1143,0.1147,0.115,0.1171,0.1142,0.1165,0.1184,0.1166,0.1188,0.119,0.1208,0.1209,0.1202,0.1189,0.1191,0.1221,0.1221,0.1221,0.1221,0,0,0,0,0,0,0,0.108,0.1083,0.1127,0.1144,0.1149,0.1148,0.1152,0.1146,0.1173,0.1167,0.1171,0.1184,0.1209,0.1202,0.1204,0.1191,0.1221,0.1221,0.1221,0.1221,0.126,0.1261,0,0,0,0,0,0,0.1089,0.1082,0.1126,0.1128,0.1126,0.1148,0.1153,0.1158,0.1173,0.1178,0.1182,0.1185,0.1202,0.1204,0.1205,0.125,0.1221,0.1221,0.1221,0.1259,0.126,0.1262,0,0,0,0,0,0,0.1087,0.1092,0.1125,0.1111,0.1116,0.1148,0.1153,0.1158,0.1185,0.1185,0.119,0.121,0.1203,0.1205,0.1233,0.1249,0.1221,0.1221,0.1258,0.1259,0.1261,0.1287,0,0,0,0,0,0,0.1085,0.1091,0.1102,0.1111,0.1117,0.1147,0.1152,0.1157,0.1191,0.1196,0.121,0.1213,0.1205,0.1234,0.1233,0.1248,0.122,0.1256,0.1258,0.126,0.1285,0.129,0.1294,0,0,0,0,0,0.1082,0.1091,0.1102,0.1108,0.113,0.1148,0.1151,0.1175,0.1191,0.1204,0.1221,0.1214,0.1247,0.1234,0.1233,0.1249,0.1255,0.1258,0.126,0.1283,0.1289,0.1294,0,0,0,0,0,0,0.1075,0.1096,0.1109,0.1125,0.1148,0.1157,0.1175,0.119,0.121,0.1225,0.1223,0.1227,0.1262,0.1252,0.1238,0.1269,0.1252,0.1254,0.1269,0.1275,0.1279,0.1281,0.122,0,0,0,0,0,0.1078,0.1088,0.1112,0.1128,0.1143,0.1163,0.1177,0.1196,0.1214,0.1226,0.1238,0.1251,0.1263,0.1269,0.1279,0.1286,0.1302,0.1299,0.1303,0.1307,0.131,0.1367,0.1377,0.127,0.127,0.127,0,0,0.1083,0.1095,0.1104,0.1128,0.1146,0.1163,0.1175,0.1208,0.1225,0.1225,0.1257,0.1272,0.1273,0.1291,0.1304,0.1288,0.1344,0.131,0.1313,0.1314,0.1371,0.1381,0.1391,0.1272,0.1272,0.1271,0,0,0.1088,0.1108,0.1118,0.1138,0.1175,0.1183,0.1202,0.123,0.125,0.1279,0.1288,0.1315,0.133,0.1328,0.1329,0.1361,0.1373,0.1373,0.1385,0.144,0.145,0.1458,0.1482,0.1492,0.1365,0.1365,0.1365,0,0.1097,0.1106,0.1127,0.1143,0.116,0.1197,0.1212,0.1232,0.1268,0.1282,0.1302,0.1347,0.1343,0.1361,0.1371,0.1369,0.1403,0.1361,0.1446,0.1455,0.1463,0.1486,0.1497,0.1366,0.1366,0.1366,0.1366,0,0.1105,0.1122,0.1133,0.1159,0.1177,0.1202,0.1232,0.1259,0.1291,0.1313,0.1366,0.1378,0.141,0.1407,0.1395,0.1445,0.145,0.1454,0.1431,0.1476,0.1496,0.1507,0.1369,0.1368,0.1368,0.1367,0,0,0.1099,0.113,0.1138,0.114,0.1188,0.1193,0.1232,0.1261,0.129,0.1343,0.1388,0.1406,0.1445,0.1449,0.1454,0.1481,0.155,0.1493,0.1495,0.1513,0.1671,0.1509,0.1505,0.1586,0.1589,0.159,0.1658,0,0.1101,0.1117,0.1137,0.115,0.1158,0.1195,0.122,0.1257,0.1305,0.1361,0.1404,0.1457,0.1455,0.1486,0.1522,0.1549,0.1584,0.1531,0.1628,0.163,0.1479,0.1514,0.1598,0.1667,0.1669,0.1671,0.1672,0,0.11,0.1106,0.1121,0.113,0.1139,0.1157,0.1197,0.1228,0.1314,0.1363,0.1444,0.1499,0.1558,0.1562,0.1649,0.1627,0.1658,0.1671,0.1674,0.1521,0.1489,0.1617,0.1692,0.1691,0.1689,0.1688,0.1687,0,0.1063,0.1086,0.1088,0.1099,0.1128,0.114,0.1164,0.1234,0.1267,0.1388,0.1452,0.1542,0.1621,0.1674,0.1709,0.1705,0.1797,0.1795,0.1677,0.1666,0.1781,0.1771,0.187,0.187,0.187,0.187,0.1869,0,0.1038,0.1035,0.1073,0.1073,0.1078,0.1115,0.1149,0.1195,0.1287,0.1341,0.1468,0.1541,0.1665,0.1731,0.1742,0.173,0.1837,0.168,0.1675,0.1788,0.1778,0.1788,0.1777,0.1872,0.1872,0.1871,0.1871,0,0.0977,0.1014,0.1011,0.1046,0.1062,0.1067,0.113,0.115,0.1265,0.1353,0.1403,0.1572,0.1662,0.1729,0.1817,0.1765,0.1759,0.1732,0.1831,0.1831,0.1586,0.1577,0.1612,0.1607,0.1603,0.1599,0.1596,0,0.094,0.0936,0.0983,0.0985,0.0999,0.1028,0.1046,0.1137,0.1173,0.1348,0.1383,0.1533,0.1629,0.1639,0.1706,0.1707,0.1688,0.1671,0.1633,0.1569,0.1562,0.1559,0.1556,0.1589,0.1588,0.1587,0.1586,0,0.0852,0.0887,0.0888,0.0913,0.0929,0.0938,0.0981,0.1003,0.1121,0.1239,0.1346,0.1406,0.1511,0.1573,0.1585,0.1579,0.1664,0.1626,0.1635,0.16,0.1542,0.1539,0.154,0.1571,0.1573,0.1575,0.1576,0,0.0795,0.0778,0.0808,0.0816,0.0838,0.0838,0.0875,0.0925,0.0985,0.1178,0.1211,0.1372,0.1512,0.1507,0.1505,0.1487,0.1469,0.1412,0.1432,0.1449,0.1355,0.1255,0.1193,0,0,0,0,0,0.0734,0.0706,0.0699,0.0704,0.0723,0.0744,0.0817,0.0865,0.1,0.1036,0.1119,0.1204,0.1262,0.1342,0.1291,0.1395,0.1447,0.1323,0.1384,0.1488,0.1506,0.1405,0,0,0,0,0,0,0.0692,0.0681,0.0671,0.062,0.0597,0.0611,0.0661,0.0747,0.0786,0.0938,0.0993,0.1094,0.1179,0.1276,0.1261,0.1272,0.1273,0.1401,0.1397,0.1479,0.1494,0.1508,0.141,0,0,0,0,0]},{"header":{"parameterUnit":"m.s-1","parameterCategory":2,"la1":30.2991,"la2":30.254,"lo1":-89.0895,"lo2":-89.0444,"dy":0.0017,"dx":0.0017,"nx":28,"ny":28,"refTime":"2024-08-15T21:00:00:Z","depth":"4","parameterNumber":3,"parameterNumberName":"V-component_of_CURRENTS"},"data":[0,0,0,0,0,0,0,0,0,0,0,0,0,0,0,0,0,0,0,0,0,0,0,0,0,0,0,0,0,0,0,0,0,0,0,0,0,0,0,0,0,0,0,0,0,0,0,0,0,0,0,0,0,0,0,0,0,0,0.0018,0.0018,0,0.002,0.002,0.002,0.0027,0.0027,0.0027,0.0027,0.004,0.004,0.0041,0,0,0,0,0,0,0,0,0,0,0,0,0,0.0027,0.0027,0.0018,0.0018,0.0018,0.002,0.002,0.002,0.0027,0.0027,0.0027,0.0027,0.004,0.004,0.0041,0,0,0,0,0,0,0,0,0,0,0,0,0,0.0027,0.0027,0.0018,0.002,0.0021,0.002,0.002,0.0021,0.0027,0.0027,0.0027,0.0027,0.004,0.004,0.0041,0.0044,0,0,0.0042,0.0043,0,0,0,0,0,0,0,0,0.0027,0.0027,0.002,0.002,0.002,0.0022,0.0028,0.0028,0.0027,0.0026,0.0027,0.0027,0.0034,0.0035,0.0037,0.0044,0.0045,0.0042,0.0043,0.0043,0.0043,0,0,0,0,0,0,0,0.0027,0.0027,0.0021,0.002,0.002,0.0024,0.0024,0.0028,0.0031,0.0026,0.0026,0.0024,0.0034,0.0037,0.0038,0.0045,0.0042,0.0043,0.0043,0.0043,0.006,0.006,0,0,0,0,0,0,0.0023,0.0027,0.002,0.002,0.0022,0.0023,0.0023,0.0023,0.0031,0.0032,0.0024,0.0024,0.0036,0.0037,0.0038,0.0054,0.0043,0.0044,0.0044,0.006,0.006,0.006,0,0,0,0,0,0,0.0024,0.0023,0.002,0.0022,0.0022,0.0023,0.0022,0.0023,0.0026,0.0029,0.003,0.0026,0.0036,0.0038,0.0047,0.0054,0.0044,0.0044,0.006,0.006,0.006,0.0078,0,0,0,0,0,0,0.0024,0.0023,0.0022,0.0022,0.0022,0.0023,0.0022,0.0023,0.0023,0.0024,0.0031,0.0033,0.0036,0.0046,0.0048,0.0055,0.0045,0.006,0.006,0.006,0.0077,0.0079,0.008,0,0,0,0,0,0.0024,0.0024,0.0022,0.0021,0.002,0.0022,0.0023,0.0024,0.0023,0.0027,0.0033,0.0032,0.0049,0.0047,0.0048,0.0056,0.006,0.006,0.006,0.0077,0.0079,0.008,0,0,0,0,0,0,0.0027,0.0025,0.0022,0.0021,0.0021,0.0023,0.0024,0.0024,0.0032,0.0033,0.0037,0.0038,0.0048,0.0048,0.0046,0.006,0.0053,0.0054,0.0065,0.0067,0.0068,0.0076,0.0045,0,0,0,0,0,0.0026,0.0028,0.0024,0.0024,0.0022,0.0023,0.0023,0.0025,0.003,0.0033,0.0039,0.0044,0.005,0.0056,0.006,0.007,0.0057,0.0074,0.0075,0.0076,0.0083,0.0067,0.0067,0.0061,0.0061,0.0061,0,0,0.0026,0.0026,0.0026,0.0025,0.0024,0.0032,0.0024,0.0026,0.0038,0.0033,0.0051,0.0049,0.0053,0.0065,0.0069,0.0067,0.007,0.0077,0.0078,0.0084,0.0067,0.0068,0.0068,0.0062,0.0062,0.0062,0,0,0.0033,0.0027,0.0031,0.0035,0.0035,0.0037,0.0038,0.004,0.0045,0.0057,0.0057,0.0059,0.0071,0.0075,0.0078,0.0088,0.0076,0.009,0.0108,0.0092,0.0092,0.0092,0.007,0.0068,0.0093,0.0093,0.0093,0,0.0033,0.0043,0.0033,0.0042,0.0052,0.0041,0.0056,0.0056,0.0065,0.0074,0.0065,0.0081,0.0076,0.0094,0.0096,0.0092,0.008,0.0102,0.0093,0.0093,0.0093,0.007,0.0068,0.0094,0.0094,0.0094,0.0094,0,0.0047,0.0057,0.006,0.0072,0.0077,0.0088,0.0089,0.0096,0.0097,0.0102,0.0114,0.0105,0.0119,0.0111,0.0107,0.0111,0.0101,0.0095,0.0089,0.0095,0.007,0.0068,0.0095,0.0095,0.0095,0.0094,0,0,0.0047,0.0067,0.007,0.0091,0.0099,0.0111,0.0122,0.0138,0.0156,0.015,0.0174,0.0164,0.0159,0.0161,0.0152,0.0133,0.0111,0.0117,0.0116,0.0096,0.0073,0.0063,0.0059,0.0105,0.0105,0.0105,0.0053,0,0.0065,0.0097,0.0101,0.014,0.0159,0.016,0.0181,0.0192,0.0193,0.0211,0.0194,0.021,0.0179,0.0187,0.0164,0.0127,0.0106,0.0126,0.007,0.0068,0.006,0.0056,0.0104,0.0051,0.005,0.0049,0.0049,0,0.0078,0.0104,0.0144,0.0192,0.0201,0.0222,0.0258,0.0276,0.0286,0.0287,0.0286,0.0273,0.0254,0.0225,0.0159,0.0174,0.0129,0.0091,0.0088,0.0073,0.0054,0.0045,0.0044,0.0044,0.0045,0.0045,0.0045,0,0.0094,0.0137,0.0178,0.0193,0.0237,0.0261,0.0287,0.0302,0.0329,0.0338,0.0352,0.0322,0.0321,0.0251,0.0162,0.0166,0.008,0.0075,0.0023,0.0021,0.0038,0.0038,0.0032,0.0032,0.0032,0.0032,0.0032,0,0.0116,0.015,0.0193,0.0218,0.0283,0.0298,0.0356,0.037,0.0396,0.0433,0.04,0.0408,0.0328,0.0268,0.0179,0.0086,0.009,0.0027,0.001,0.0045,0.0047,0.0035,0.0036,0.003,0.0031,0.0031,0.0032,0,0.0126,0.0152,0.0207,0.0265,0.0293,0.0339,0.041,0.0445,0.0461,0.0504,0.0511,0.0479,0.04,0.0298,0.0186,0.0119,0.0019,-0.0013,0.0024,0.001,-0.0031,-0.0028,-0.0065,-0.0066,-0.0067,-0.0067,-0.0068,0,0.0135,0.0164,0.0242,0.0285,0.0317,0.0388,0.0438,0.0479,0.0513,0.0538,0.0559,0.0508,0.0469,0.0304,0.0188,0.0022,0.0002,-0.0047,-0.0031,-0.0027,-0.004,-0.0036,-0.0033,-0.0069,-0.0069,-0.0069,-0.0069,0,0.0161,0.0184,0.0228,0.0311,0.0376,0.0457,0.0525,0.0553,0.0597,0.0609,0.0604,0.0527,0.0447,0.0314,0.0187,0.0065,-0.0018,-0.0054,-0.0053,-0.0038,-0.0032,-0.0043,-0.0039,-0.0071,-0.0071,-0.0071,-0.0071,0,0.0176,0.021,0.0264,0.0341,0.0421,0.0501,0.0539,0.0585,0.0626,0.0644,0.0635,0.0545,0.05,0.0336,0.0206,0.0093,0.0074,0.0042,0.0038,0.0039,0.0081,0.0105,0.0095,0,0,0,0,0,0.0194,0.0234,0.0296,0.0378,0.045,0.0504,0.0589,0.0616,0.0649,0.0653,0.0649,0.0568,0.0411,0.0341,0.0229,0.0185,0.0042,0.0049,0.0,-0.0083,-0.0081,-0.0051,0,0,0,0,0,0,0.021,0.0262,0.0293,0.0393,0.0447,0.0538,0.0593,0.0618,0.0624,0.0635,0.0554,0.053,0.0373,0.0467,0.022,0.0187,0.0141,-0.0022,-0.0024,-0.0085,-0.0082,-0.008,-0.0049,0,0,0,0,0]}]]